This is the latest recevied weather packets stored in our database for station/object S55YIZ-7. If no packets are shown the sender has not sent any weather packets the latest 10 day(s).
| Time | Temp. | Humidity | Pressure | Rain* | Wind** | Luminosity | Snow |
|---|---|---|---|---|---|---|---|
| 1776919455 | 13.33° C | 39% | 1023.7 hPa | - | - | - | - |
| 1776919151 | 13.33° C | 39% | 1023.7 hPa | - | - | - | - |
| 1776918251 | 12.22° C | 41% | 1023.7 hPa | - | - | - | - |
| 1776917351 | 11.67° C | 43% | 1023.7 hPa | - | - | - | - |
| 1776916451 | 11.67° C | 43% | 1023.6 hPa | - | - | - | - |
| 1776915551 | 11.67° C | 43% | 1023.6 hPa | - | - | - | - |
| 1776914651 | 11.67° C | 43% | 1023.6 hPa | - | - | - | - |
| 1776913751 | 11.11° C | 44% | 1023.6 hPa | - | - | - | - |
| 1776912850 | 11.67° C | 44% | 1023.7 hPa | - | - | - | - |
| 1776911986 | 11.67° C | 44% | 1023.7 hPa | - | - | - | - |
| 1776911950 | 11.67° C | 44% | 1023.7 hPa | - | - | - | - |
| 1776911050 | 11.67° C | 44% | 1023.6 hPa | - | - | - | - |
| 1776910150 | 11.67° C | 42% | 1023.8 hPa | - | - | - | - |
| 1776909250 | 11.67° C | 42% | 1023.8 hPa | - | - | - | - |
| 1776908350 | 11.67° C | 40% | 1023.8 hPa | - | - | - | - |
| 1776907450 | 11.67° C | 40% | 1023.8 hPa | - | - | - | - |
| 1776906550 | 12.22° C | 39% | 1023.8 hPa | - | - | - | - |
| 1776905650 | 11.67° C | 39% | 1023.7 hPa | - | - | - | - |
| 1776904749 | 11.67° C | 39% | 1023.8 hPa | - | - | - | - |
| 1776903849 | 11.67° C | 39% | 1023.7 hPa | - | - | - | - |
| 1776902949 | 11.67° C | 41% | 1023.7 hPa | - | - | - | - |
| 1776902049 | 11.67° C | 40% | 1023.7 hPa | - | - | - | - |
| 1776901149 | 12.22° C | 41% | 1023.7 hPa | - | - | - | - |
| 1776900248 | 12.22° C | 42% | 1023.7 hPa | - | - | - | - |
| 1776899348 | 11.67° C | 40% | 1023.7 hPa | - | - | - | - |
* Rain since midnight (hover to see other rain measurements)
** Current wind speed in m/s (hover to see current wind gust speed)